Aeroporto :
LOGIN :

Iscrizione | Disclaimer

   EN    FR    IT 

 










Sommario :    VFR   VFR Marginale   IFR   IFR Intensivo   IFR Molto Intensivo
Visibilità : 
Base nubi : 
>= 8 km
>= 3000ft
5 / 8 km
1000 / 3000 ft
1500m / 5 km
500 / 1000 ft
800 / 1500m
200 / 500 ft
< 800m
< 200 ft
Simboli :   Temporali  Nebbia  Neve Forte  Precipitazioni Forti  Vento > 20 kt
SIGMETs :   Varie  Temporali  Ghiacco  Turbolenza  Onda orograficha  Ceneri Vulcaniche






- Altitudine del aeroporto : 75 ft
- Codice IATA : MRH


EGYM - RAF Marham

ULTIMO METAR :
  • 240922Z 22011KT 9999 FEW012 SCT055 15/13 Q1015 NOSIG RMK BLU BLU

METARs OBSOLETI :
  • 240850Z 23012KT CAVOK 15/12 Q1015 NOSIG RMK BLU BLU
  • 240822Z 22008KT CAVOK 15/12 Q1015 NOSIG RMK BLU BLU
  • 240750Z 20006KT CAVOK 13/13 Q1014 NOSIG RMK BLU BLU
  • 240721Z 16004KT 9000 BR SKC 12/11 Q1015 NOSIG RMK BLU BLU
  • 240650Z 17005KT 9000 BR FEW100 11/10 Q1015 BLU

TAF TAF EGYM
Valido dal 24 a 09 ore il 24 a 18 ore UTC


240736Z 2409/2418 23006KT 9999 FEW045



MetMap, La meteo Aeronautica in un colpo d'occhio ! - Copyright ORBIFLY Dicembre 2007 - Disclaimer

ORBIFLY MET'MAP TEAM :

Programmazione e sviluppo : Alexandra Zaïnal
Concezione : Baudouin d'Aumeries
Aiuto per la programmazione : Marc-Olivier Méhu
Supporto tecnico e logistico : Manuel Goepfert
Aiuto per la traduzione : Arnaldo La Scala

Contatto : metmap@orbifly.com




FONTI E CREDITI :

   NOAA